Location: Bois de la Silve
(44.4667°N, 6.7833°E)
Time: 00:31:56
(UTC+00:00)

USA 238 DEB - Pass Details

Date: 01 November 2020
Orbit: 1001 x 1211 km, 63.5° (Epoch: 22 November)

Event Time Altitude Azimuth Distance (km) Brightness Sun altitude
Exits shadow 05:10:46 - 312° (NW) 3,075 5.6 -11.2°
Reaches altitude 10° 05:11:36 10° 318° (NW) 2,909 5.5 -11.0°
Maximum altitude 05:15:43 16° 355° (N) 2,520 5.5 -10.3°
Drops below altitude 10° 05:19:56 10° 32° (NNE) 3,003 6.3 -9.5°
Sets 05:24:01 0° 53° (NE) 4,008 7.4 -8.8°
